HULIANGWANG DIGUI-05

Last updated on Thu Jan 16 2025 00:02:04 GMT+0000 (Coordinated Universal Time)

1 62327U 24240E 25015.54980845 .00000072 00000+0 10786-3 0 9991 2 62327 86.5078 158.4309 0011131 204.2363 155.8257 13.37554939 4032
UTC large
Height (km)
Speed (km/s)
/
Latitude / Longitude
Inclination (degrees)
Orbital Period (minutes)
Azimuth
Elevation
Range (km)
Doppler Factor

Next 0 passes for location: London (51.5072 / 0.1276)

Sorry there are no passes over London.